Regional Weather Roundup
Issued by NWS

Home | Current Version | Previous Version | Graphics & Text | Print | Product List | Glossary On
Versions: 1 2 3 4 5 6 7 8 9 10 11 12 13 14 15 16 17 18 19 20 21 22 23 24 25 26 27 28 29 30 31 32 33 34 35 36 37 38 39 40 41 42 43 44 45 46 47 48 49 50
000
ASUS43 KMKX 251800
RWRWI

WISCONSIN REGIONAL WEATHER ROUNDUP
NATIONAL WEATHER SERVICE MILWAUKEE/SULLIVAN WI
100 PM CDT TUE JUL 25 2017

NOTE: "FAIR" INDICATES FEW OR NO CLOUDS BELOW 12,000 FEET WITH NO
SIGNIFICANT WEATHER AND/OR OBSTRUCTIONS TO VISIBILITY.

WIZ001-002-006>008-014>016-023>028-251900-
NORTHWEST WISCONSIN

CITY           SKY/WX    TMP DP  RH WIND       PRES   REMARKS
SUPERIOR ARPT  NOT AVBL
ASHLAND        CLOUDY    77  63  61 S9G20     30.02F
6HR MIN TEMP:  59; 6HR MAX TEMP:  77;

HAYWARD        CLOUDY    72  62  71 S14G21    30.04F
6HR MIN TEMP:  62; 6HR MAX TEMP:  72; 6HR PCP:  0.01;

SIREN          CLOUDY    72  63  73 S9        30.02S
CUMBERLAND     CLOUDY    70  61  73 S15       30.03F
RICE LAKE      PTSUNNY   75  62  64 SE17      30.06S
CHETEK         PTSUNNY   72  64  75 S17       30.05F
LADYSMITH      CLOUDY    71  61  71 S13G20    30.09F
EAU CLAIRE     NOT AVBL
MENOMONIE      CLOUDY    72  64  74 SE10      30.04F
6HR MIN TEMP:  63; 6HR MAX TEMP:  73;

NEW RICHMOND   PTSUNNY   75  64  68 S12G18    30.02F
OSCEOLA        CLOUDY    76  65  68 S13G20    30.02F
$$

WIZ003>005-009-010-017-018-251900-
NORTH CENTRAL WISCONSIN

CITY           SKY/WX    TMP DP  RH WIND       PRES   REMARKS
MANITOWISH WTR MOSUNNY   70  57  63 S17       30.12F
ARBOR VITAE    MOSUNNY   72  56  58 S14       30.13F
WOODRUFF       MOSUNNY   72  56  58 S14       30.13F
RHINELANDER    CLOUDY    72  48  42 S10       30.15F
6HR MIN TEMP:  55; 6HR MAX TEMP:  72;

EAGLE RIVER    CLOUDY    69  46  42 S12G21    30.15S
LAND O LAKES   CLOUDY    72  47  41 S10G23    30.15S
6HR MIN TEMP:  54; 6HR MAX TEMP:  72;

PHILLIPS       CLOUDY    69  58  69 SE15      30.09F
6HR MIN TEMP:  59; 6HR MAX TEMP:  69;

TOMAHAWK         N/A     66  52  60 CALM      30.16F
MEDFORD        CLOUDY    62  57  84 SE7       30.13F
MERRILL        CLOUDY    67  55  63 S8        30.17F
6HR MIN TEMP:  56; 6HR MAX TEMP:  68;

$$

WIZ029-030-035-036-043>047-251900-
CENTRAL WISCONSIN

CITY           SKY/WX    TMP DP  RH WIND       PRES   REMARKS
WAUSAU         CLOUDY    68  58  70 S15       30.14F
6HR MIN TEMP:  56; 6HR MAX TEMP:  68; 6HR PCP: TRACE;

MOSINEE        PTSUNNY   68  59  73 S13       30.18F
MARSHFIELD     LGT RAIN  65  59  81 SE9       30.12F
6HR MIN TEMP:  58; 6HR MAX TEMP:  65; 6HR PCP: TRACE;

STEVENS POINT  LGT RAIN  66  58  74 S8        30.18F
WAUPACA        PTSUNNY   76  60  57 SW10      30.20R
WAUTOMA        PTSUNNY   73  61  65 S9        30.18F
6HR MIN TEMP:  52; 6HR MAX TEMP:  74;

WISC RAPIDS    PTSUNNY   68  58  70 S7        30.17F
6HR MIN TEMP:  57; 6HR MAX TEMP:  72;

CAMP DOUGLAS   NOT AVBL
$$

WIZ011>013-019>022-031-037>040-048>050-251900-
NORTHEAST WISCONSIN

CITY           SKY/WX    TMP DP  RH WIND       PRES   REMARKS
ANTIGO         MOSUNNY   67  55  65 S13       30.18F
6HR MIN TEMP:  55; 6HR MAX TEMP:  68;

SHAWANO        CLOUDY    74  59  60 S5        30.18F
6HR MIN TEMP:  56; 6HR MAX TEMP:  74;

OCONTO         PTSUNNY   73  60  63 SW7       30.18S
STURGEON BAY     N/A     74  62  66 S10       30.19F
6HR MIN TEMP:  62; 6HR MAX TEMP:  76;

GREEN BAY      MOSUNNY   75  63  66 S10G21    30.19S
6HR MIN TEMP:  57; 6HR MAX TEMP:  75;

MANITOWOC      NOT AVBL
APPLETON       PTSUNNY   73  57  56 S12G21    30.19R
CLINTONVILLE   PTSUNNY  N/A N/A N/A S9        30.18F
OSHKOSH        MOSUNNY   74  59  59 SW10      30.19S
6HR MIN TEMP:  57; 6HR MAX TEMP:  75;

$$

WIZ032>034-041-042-053>061-251900-
SOUTHWEST WISCONSIN

CITY           SKY/WX    TMP DP  RH WIND       PRES   REMARKS
LA CROSSE      CLOUDY    71  66  84 S12       30.08R
6HR MIN TEMP:  66; 6HR MAX TEMP:  71; 6HR PCP:  0.13;

SPARTA         CLOUDY    64  62  91 SE8       30.10F
6HR MIN TEMP:  60; 6HR MAX TEMP:  67; 6HR PCP:  0.03;

VIROQUA        CLOUDY    64  64 100 S10       30.15F
6HR MIN TEMP:  60; 6HR MAX TEMP:  66; 6HR PCP:  0.14;

BOSCOBEL       LGT RAIN  70  66  87 CALM      30.15F
6HR MIN TEMP:  62; 6HR MAX TEMP:  72; 6HR PCP:  0.01;

PRAIRIE DU CHI CLOUDY    70  62  76 SE6       30.15F
PLATTEVILLE    CLOUDY    73  67  81 SE6       30.19S
$$

WIZ056-057-062-063-064-067-068-251900-
SOUTH CENTRAL WISCONSIN

CITY           SKY/WX    TMP DP  RH WIND       PRES   REMARKS
REEDSBURG      LGT RAIN  68  63  83 SE5       30.16F
6HR MIN TEMP:  57; 6HR MAX TEMP:  70;

BARABOO/DELLS  CLOUDY    73  58  59 SW8       30.19F
LONE ROCK      CLOUDY    71  64  78 S5        30.17F
6HR MIN TEMP:  60; 6HR MAX TEMP:  73; 6HR PCP: TRACE;

MINERAL POINT  CLOUDY    73  66  78 S7        30.20R
MADISON        CLOUDY    75  61  61 S13       30.18F
6HR MIN TEMP:  60; 6HR MAX TEMP:  75;

MIDDLETON      PTSUNNY   77  62  59 S9G16     30.19F
6HR MIN TEMP:  57; 6HR MAX TEMP:  77;

WATERTOWN      CLOUDY    75  64  67 S9        30.20S
MONROE         PTSUNNY   73  61  64 S8        30.20S
JANESVILLE     MOSUNNY   79  61  53 S8        30.19F HX  80
$$

WIZ051-052-058>065-066-070>072-251900-
SOUTHEAST WISCONSIN

CITY           SKY/WX    TMP DP  RH WIND       PRES   REMARKS
MILWAUKEE      PTSUNNY   78  62  57 SE9G18    30.20F HX  80
6HR MIN TEMP:  64; 6HR MAX TEMP:  78;

WAUKESHA       MOSUNNY   73  57  56 SW9       30.22S
MILWAUKEE/TIMM PTSUNNY   77  55  47 S12       30.21S
RACINE         SUNNY     76  59  55 S14       30.22F
6HR MIN TEMP:  61; 6HR MAX TEMP:  76;

KENOSHA        SUNNY     78  60  53 SE12      30.21S
6HR MIN TEMP:  62; 6HR MAX TEMP:  78;

FOND DU LAC    MOSUNNY   76  58  53 S10       30.19F
6HR MIN TEMP:  56; 6HR MAX TEMP:  76;

SHEBOYGAN      MOSUNNY   75  67  76 S12       30.20S
6HR MIN TEMP:  57; 6HR MAX TEMP:  76;

WEST BEND      PTSUNNY   75  59  57 S7        30.20F
JUNEAU         CLOUDY    74  60  62 S10       30.21F
$$

LSZ147-162-251900-
LAKE SUPERIOR

STATION/POSITION TIME  TEMP    WIND        PRES    WAVE
                       AIR SEA DIR/SP/G            HT/PER
                 (UTC) (F)     (DEG/KT/KT) (MB)    (FT/S)
W MID LAKE BUOY  1650   57 51  150/  8/  8 1017.7F   1
DEVILS ISLAND    1700   73     180/  9/ 13 1017.0F
PORT WING        1720   76     170/  6/ 20 1015.6
SAXON HARBOR     1730   76     190/  5/ 19 1016.9F
$$

LMZ867-665-643>646-251900-
LAKE MICHIGAN

STATION/POSITION TIME  TEMP    WIND        PRES    WAVE
                       AIR SEA DIR/SP/G            HT/PER
                 (UTC) (F)     (DEG/KT/KT) (MB)    (FT/S)
CHAMBERS ISLAND  1740   73     190/  4/ 15 1021.3F
S GREEN BAY BUOY 1730   71 72  220/ 12/ 14 1021.6F
N MID LAKE BUOY  1650   66 67  180/ 10/ 12 1022.8R   1
NORTHPORT PIER   1740   70     150/ 11/ 14 1021.7F
KEWAUNEE LAKESHO 1730   69     160/ 12/ 14 1021.7S
SHEBOYGAN LAKESH 1700   67     160/ 10/ 11 1022.6R
PORT WASHINGTON  1740   73     160/ 11/ 14 1023.7S
ATWATER BUOY     1609   70 69  150/ 14/ 16 1022.8R
MILWAUKEE LAKESH 1750   70     140/ 16/ 18   N/A
S MID LAKE BUOY  1650   70 70  180/ 14/ 16 1023.2R   2/ 4
KENOSHA   LAKESH 1700   71     160/ 15/ 17 1022.4
$$

TC  - TEMPERATURE IN CELSIUS
VSB - VISIBILITY IN STATUTE MILES
WCI - WIND CHILL INDEX
HX  - HEAT INDEX





USA.gov is the U.S. government's official web portal to all federal, state and local government web resources and services.